Location: Eastchurch
(51.4000°N, 0.8667°E)
Time: 23:37:11
(UTC+00:00)

SL-16 R/B - Pass Details

Date: 19 January 2026
Orbit: 841 x 845 km, 71.0° (Epoch: 18 February)

Event Time Altitude Azimuth Distance (km) Brightness Sun altitude
Rises 17:05:59 0° 321° (NW) 3,413 5.6 -6.6°
Reaches altitude 10° 17:10:33 10° 355° (N) 2,477 4.5 -7.3°
Maximum altitude 17:12:19 11° 13° (NNE) 2,378 4.2 -7.5°
Drops below altitude 10° 17:14:06 10° 32° (NNE) 2,476 4.2 -7.8°
Enters shadow 17:15:35 - 45° (NE) 2,693 4.2 -8.0°
